KE5ZZN Weather Reports


time (UTC)temp
F
wind
direction
speed
knots
gust
knots
rain 1hr
in
rain 24hr
in
rain mn
in
humidity
%
barometer
mb
20220811222002 98 270 4.3 6.1 0.00 0.00 0.00 38 1011.0
20220811215503 97 113 1.7 7.8 0.00 0.00 0.00 39 1011.0
20220811211503 99 270 3.5 7.8 0.00 0.00 0.00 38 1011.0
20220811211003 98 113 1.7 7.8 0.00 0.00 0.00 39 1011.0
20220811210503 99 315 1.7 7.8 0.00 0.00 0.00 38 1011.0
20220811205002 100 338 5.2 7.8 0.00 0.00 0.00 36 1011.0
20220811203503 98 338 4.3 7.8 0.00 0.00 0.00 39 1012.0
20220811203003 97 180 0.9 7.8 0.00 0.00 0.00 42 1012.0
20220811201003 98 180 1.7 6.1 0.00 0.00 0.00 41 1012.0
20220811195003 96 248 3.5 6.1 0.00 0.00 0.00 42 1013.0
20220811191503 93 113 1.7 7.8 0.00 0.00 0.00 48 1013.0
20220811185502 92 225 1.7 7.8 0.00 0.00 0.00 52 1013.0
20220811183502 92 338 1.7 5.2 0.00 0.00 0.00 54 1014.0
20220811174503 90 248 1.7 5.2 0.00 0.00 0.00 57 1014.0
20220811173503 90 293 4.3 5.2 0.00 0.00 0.00 58 1014.0
20220811170003 87 293 3.5 5.2 0.00 0.00 0.00 63 1015.0
20220811165503 87 203 3.5 5.2 0.00 0.00 0.00 64 1015.0
20220811163003 86 225 3.5 5.2 0.00 0.00 0.00 67 1015.0
20220811154003 84 203 3.5 4.3 0.00 0.00 0.00 71 1015.0
20220811152003 85 225 1.7 4.3 0.00 0.00 0.00 71 1015.0
20220811144503 81 203 2.6 4.3 0.00 0.00 0.00 78 1015.0
20220811142502 80 158 0.9 3.5 0.00 0.00 0.00 81 1015.0
20220811142003 80 270 0.9 3.5 0.00 0.00 0.00 82 1015.0
20220811141502 79 113 1.7 3.5 0.00 0.00 0.00 83 1015.0
20220811141003 79 203 0.0 0.0 0.00 0.00 0.00 83 1015.0
20220811140003 79 225 0.0 0.0 0.00 0.00 0.00 85 1015.0
20220811135503 78 203 0.0 0.0 0.00 0.00 0.00 85 1015.0
20220811135003 78 248 0.0 0.0 0.00 0.00 0.00 85 1015.0
20220811133002 77 338 0.0 0.0 0.00 0.00 0.00 87 1015.0
20220811131503 77 270 0.0 0.0 0.00 0.00 0.00 89 1015.0
20220811131004 76 270 0.0 0.0 0.00 0.00 0.00 90 1015.0
20220811130503 75 293 0.0 0.0 0.00 0.00 0.00 91 1015.0
20220811125003 75 203 0.0 1.7 0.00 0.00 0.00 93 1014.0
20220811124002 74 203 0.0 1.7 0.00 0.00 0.00 93 1015.0
20220811123003 74 158 0.0 1.7 0.00 0.00 0.00 94 1015.0
20220811121503 73 203 0.0 1.7 0.00 0.00 0.00 94 1015.0
20220811120503 73 248 0.0 1.7 0.00 0.00 0.00 95 1015.0
20220811115503 73 270 0.0 1.7 0.00 0.00 0.00 95 1015.0
20220811114503 73 203 0.0 1.7 0.00 0.00 0.00 95 1015.0
20220811114003 73 225 0.0 1.7 0.00 0.00 0.00 95 1015.0
20220811113502 73 180 0.0 3.5 0.00 0.00 0.00 95 1014.0
20220811112502 73 225 0.0 3.5 0.00 0.00 0.00 95 1014.0
20220811112003 73 203 0.0 3.5 0.00 0.00 0.00 95 1014.0
20220811111003 73 158 0.0 4.3 0.00 0.00 0.00 95 1014.0
20220811110503 73 248 0.0 4.3 0.00 0.00 0.00 95 1014.0
20220811110003 73 180 0.0 4.3 0.00 0.00 0.00 95 1014.0
20220811104503 73 203 0.0 4.3 0.00 0.00 0.00 95 1015.0
20220811104002 73 225 0.0 4.3 0.00 0.00 0.00 95 1015.0
20220811103503 73 248 0.0 4.3 0.00 0.00 0.00 94 1015.0
20220811102502 73 270 0.0 4.3 0.00 0.00 0.00 94 1015.0
20220811100502 73 203 2.6 4.3 0.00 0.00 0.00 93 1014.0
20220811095502 73 180 0.0 0.0 0.00 0.00 0.00 93 1014.0
20220811095003 73 180 0.0 0.0 0.00 0.00 0.00 92 1014.0
20220811092503 73 203 0.0 0.0 0.00 0.00 0.00 93 1015.0
20220811090503 73 203 0.0 0.0 0.00 0.00 0.00 94 1015.0
20220811085503 73 180 0.0 0.0 0.00 0.00 0.00 94 1015.0
20220811085003 73 135 0.0 0.0 0.00 0.00 0.00 94 1015.0
20220811084503 72 203 0.0 0.0 0.00 0.00 0.00 95 1015.0
20220811084003 72 203 0.0 0.0 0.00 0.00 0.00 95 1015.0
20220811083003 72 293 0.0 0.0 0.00 0.00 0.00 95 1015.0
20220811082502 72 113 0.0 0.0 0.00 0.00 0.00 95 1015.0
20220811081502 72 113 0.0 0.0 0.00 0.00 0.00 95 1015.0
20220811080003 72 270 0.0 0.0 0.00 0.00 0.00 95 1014.0
20220811075503 72 135 0.0 0.0 0.00 0.00 0.00 95 1014.0
20220811074002 72 158 0.0 0.0 0.00 0.00 0.00 95 1014.0
20220811073503 72 113 0.0 0.0 0.00 0.00 0.00 95 1014.0
20220811073002 72 315 0.0 0.0 0.00 0.00 0.00 95 1014.0
20220811072503 72 203 0.0 0.0 0.00 0.00 0.00 95 1014.0
20220811064502 72 135 0.0 0.0 0.00 0.00 0.00 95 1014.0
20220811063002 72 113 0.0 0.0 0.00 0.00 0.00 94 1014.0
20220811062002 72 180 0.0 0.0 0.00 0.00 0.00 94 1015.0
20220811054503 72 158 0.0 0.0 0.00 0.00 0.00 94 1015.0
20220811053502 72 113 0.0 0.0 0.00 0.00 0.00 94 1015.0
20220811051503 72 113 0.0 0.0 0.00 0.00 0.00 94 1015.0
20220811044503 72 293 0.0 1.7 0.00 0.00 0.05 94 1015.0
20220811043503 72 158 0.0 1.7 0.00 0.00 0.05 94 1015.0
20220811043003 72 158 0.0 1.7 0.00 0.00 0.05 94 1015.0
20220811041503 73 158 0.0 1.7 0.00 0.00 0.05 94 1015.0
20220811031002 73 113 0.0 0.9 0.00 0.00 0.05 93 1015.0
20220811025503 73 180 0.0 0.9 0.00 0.00 0.05 94 1015.0
20220811025003 73 135 0.0 0.9 0.00 0.00 0.05 94 1015.0
20220811024503 73 158 0.0 0.9 0.00 0.00 0.05 94 1015.0
20220811021003 74 113 0.0 0.0 0.00 0.00 0.05 94 1015.0
20220811015003 74 180 0.0 0.0 0.00 0.00 0.05 93 1015.0
20220811010003 74 158 0.0 3.5 0.00 0.00 0.05 92 1015.0
20220811005503 74 113 0.0 3.5 0.00 0.00 0.05 92 1015.0
20220811005003 75 135 0.0 3.5 0.00 0.00 0.05 92 1015.0
20220811004503 75 158 0.0 3.5 0.00 0.00 0.05 92 1015.0
20220811003503 75 158 0.0 3.5 0.00 0.00 0.05 92 1014.0
20220811002503 75 203 0.9 4.3 0.00 0.00 0.05 92 1014.0
20220811002003 75 203 3.5 6.1 0.00 0.00 0.05 92 1014.0
20220811001002 75 158 0.0 6.1 0.00 0.00 0.05 92 1014.0
20220811000503 75 225 3.5 6.1 0.00 0.00 0.05 93 1014.0
20220810235003 75 135 0.0 6.1 0.00 0.00 0.05 93 1014.0
20220810234503 75 113 0.0 6.1 0.00 0.00 0.05 93 1014.0
20220810234003 75 180 1.7 6.1 0.00 0.00 0.05 93 1014.0